Regional Weather Roundup
Issued by NWS Albany, NY

Current Version | Previous Version | Graphics & Text | Print | Product List | Glossary Off
Versions: 1 2 3 4 5 6 7 8 9 10 11 12 13 14 15 16 17 18 19 20 21 22 23 24 25 26 27 28

000
ASUS41 KALY 061310
RWRALY

NEW YORK STATE HOURLY WEATHER ROUNDUP
NATIONAL WEATHER SERVICE ALBANY NY
900 AM EDT FRI MAY 06 2016

NOTE: "FAIR" INDICATES FEW OR NO CLOUDS BELOW 12,000 FEET WITH NO
SIGNIFICANT WEATHER AND/OR NO OBSTRUCTIONS TO VISIBILITY.

NYZ032-033-038>043-046>054-057>066-NYZ062>081-082-084-061400-
EAST


CITY           SKY/WX    TMP DP  RH WIND       PRES   REMARKS
ALBANY         CLOUDY    53  40  61 N10       29.78R
GLENS FALLS    MOSUNNY   55  39  54 NE14      29.79R
POUGHKEEPSIE   LGT RAIN  52  48  86 N7        29.73S FOG
NEWBURGH       LGT RAIN  50  50 100 NE6       29.73S FOG
MONTGOMERY     LGT RAIN  52  48  86 NE13G23   29.72R
WHITE PLAINS   LGT RAIN  48  46  93 NE8       29.70S FOG
ISLIP          LGT RAIN  48  45  89 NE13      29.69S
NEW YORK CITY  LGT RAIN  51  49  92 NE23G30   29.70R
CENTRAL PARK   LGT RAIN  48  45  89 NE10G20   29.72S
$$

NYZ005>009-017-018-044>046-055-056-061400-
CENTRAL


CITY           SKY/WX    TMP DP  RH WIND       PRES   REMARKS
FULTON         MOSUNNY   58  41  53 N13       29.82S
SYRACUSE       PTSUNNY   55  41  59 N8        29.78F
ROME           MOSUNNY   56  40  55 NE15G23   29.79R
ELMIRA         CLOUDY    53  40  61 NE9       29.79R
BINGHAMTON     CLOUDY    48  41  76 N10       29.76R
MONTICELLO     CLOUDY    46  46 100 N5        29.73F
$$

NYZ026>034-041>043-087-061400-
NORTH


CITY           SKY/WX    TMP DP  RH WIND       PRES   REMARKS
WATERTOWN      MOSUNNY   53  41  63 NE10      29.84F
FORT DRUM      NOT AVBL
MASSENA        SUNNY     52  38  58 NE12      29.91R
SARANAC LAKE   SUNNY     51  35  54 NE13      29.82S
PLATTSBURGH    SUNNY     52  37  56 N12       29.87R
$$

NYZ001>004-010>016-019>021-085-061400-
WEST


CITY           SKY/WX    TMP DP  RH WIND       PRES   REMARKS
NIAGARA FALLS  MOSUNNY   57  45  64 N6        29.87R
BUFFALO        MOSUNNY   56  43  61 N8        29.86R
DUNKIRK        SUNNY     52  43  71 CALM      29.87R
JAMESTOWN      SUNNY     52  39  62 N9        29.84S
WELLSVILLE     MOSUNNY   52  40  63 N10G21    29.82R
ROCHESTER      MOSUNNY   56  41  57 NE13      29.86R
PENN YAN       CLOUDY    53  40  61 VRB6      29.82R
$$

             KEY
       WCI = WIND CHILL INDEX
       VSB = VISIBILITY
       HX  = HEAT INDEX
$$




USA.gov is the U.S. government's official web portal to all federal, state and local government web resources and services.